Project,Study,Ord_Occ,Event_Num,Cast_ID,Date_Time_UTC,Date_Time_PST,Lat_Dec,Lon_Dec,Sta_ID,Line,Sta,Depth,Pressure,PrQ,Temp1,Temp1Q,Temp2,Temp2Q,TempAve,Salt1,Salt1Q,Salt1_Corr,Salt2,Salt2Q,Salt2_Corr,SaltAve_Corr,Ox1,Ox1Q,Ox1_CruiseCorr,Ox1_StaCorr,Ox2,Ox2Q,Ox2_CruiseCorr,Ox2_StaCorr,OxAve_StaCorr,Ox1uM,Ox1uM_CruiseCorr,Ox1uM_StaCorr,Ox2uM,Ox2uM_CruiseCorr,Ox2uM_StaCorr,OxAveuM_StaCorr,FluorV,FluorQ,EstChl_CruiseCorr,EstChl_StaCorr,ISUSV,ISUSQ,EstNO3_CruiseCorr,EstNO3_StaCorr,SigThetaTS1,SigThetaTS1Q,SigThetaTS2,SigThetaTS2Q,BAT,XMiss,TransQ,pH,pHQ,SPAR,SPARQ,PAR,PARQ,PoT1,PoT2,DynHt,SVA,OxSat1,OxSat2,BTL_Depth,BTL_Temp,SaltB,OxB,OxBuM,Chl-a,Phaeo,NO3,NO2,NH4,PO4,SIL
CalCOFI,2007SR,064,66,2007_064d,25-Jul-2020 22:43:29,25-Jul-2020 14:43:29,34.38870,-122.24622,076.7 070.0,076.7,070.0,3.000,3.022,,16.3728,,16.3706,,16.3717,33.5641,,33.5643,33.5654,,33.5670,33.5657,5.6220,,5.8567,5.8238,4.2303,,6.1578,4.8517,5.3378,245.062,255.3321,254.1217,184.395,433.8419,199.9652,227.0435,0.0920,,0.6571,0.3109,-99.0,,-99.0,-99.0,24.5584,,24.5599,,0.7946,81.9834,,8.133,,1.8381E+03,,3.3455E+01,,16.3723,16.3702,0.0051,,100.578,75.677,2,16.514,33.5688,5.859,255.78,0.398,0.055,1.96,0.048,0.20,0.36,1.87
CalCOFI,2007SR,064,66,2007_064d,25-Jul-2020 22:43:35,25-Jul-2020 14:43:35,34.38870,-122.24622,076.7 070.0,076.7,070.0,4.000,4.029,,16.3694,,16.3701,,16.3698,33.5647,,33.5649,33.5657,,33.5673,33.5661,5.6231,,5.8579,5.8249,4.2431,,6.1884,4.8849,5.3549,245.107,255.3791,254.1685,184.956,433.9519,201.3055,227.7370,0.0858,,0.5842,0.2826,-99.0,,-99.0,-99.0,24.5597,,24.5602,,0.7943,81.9898,,8.133,,1.8986E+03,,2.8432E+01,,16.3688,16.3695,0.0099,,100.591,75.907,,,,,,,,,,,,
CalCOFI,2007SR,064,66,2007_064d,25-Jul-2020 22:43:39,25-Jul-2020 14:43:39,34.38870,-122.24622,076.7 070.0,076.7,070.0,5.000,5.036,,16.3999,,16.4023,,16.4011,33.5659,,33.5661,33.5680,,33.5696,33.5679,5.6123,,5.8466,5.8137,4.2457,,6.1946,4.8916,5.3527,244.639,254.8906,253.6814,185.070,432.8073,201.5779,227.6297,0.0879,,0.6089,0.2922,-99.0,,-99.0,-99.0,24.5536,,24.5547,,0.7907,82.0632,,8.133,,1.9301E+03,,2.5270E+01,,16.3991,16.4015,0.0143,,100.459,76.002,,,,,,,,,,,,
CalCOFI,2007SR,064,66,2007_064d,25-Jul-2020 22:43:41,25-Jul-2020 14:43:41,34.38870,-122.24622,076.7 070.0,076.7,070.0,6.000,6.044,,16.4278,,16.4272,,16.4275,33.5630,,33.5632,33.5644,,33.5660,33.5646,5.6074,,5.8415,5.8086,4.2478,,6.1996,4.8970,5.3528,244.426,254.6682,253.4597,185.163,432.2863,201.8001,227.6299,0.0844,,0.5677,0.2761,-99.0,,-99.0,-99.0,24.5449,,24.5462,,0.7912,82.0543,,8.133,,1.9468E+03,,2.1699E+01,,16.4269,16.4263,0.0177,,100.423,76.074,,,,,,,,,,,,
CalCOFI,2007SR,064,66,2007_064d,25-Jul-2020 22:43:44,25-Jul-2020 14:43:44,34.38870,-122.24622,076.7 070.0,076.7,070.0,7.000,7.051,,16.4221,,16.4269,,16.4245,33.5628,,33.5630,33.5634,,33.5650,33.5640,5.6094,,5.8436,5.8107,4.2527,,6.2113,4.9097,5.3602,244.513,254.7590,253.5503,185.376,432.4991,202.3090,227.9297,0.0902,,0.6360,0.3027,-99.0,,-99.0,-99.0,24.5462,,24.5455,,0.7926,82.0249,,8.133,,1.9134E+03,,1.9248E+01,,16.4210,16.4258,0.0211,,100.448,76.161,,,,,,,,,,,,
CalCOFI,2007SR,064,66,2007_064d,25-Jul-2020 22:43:46,25-Jul-2020 14:43:46,34.38870,-122.24622,076.7 070.0,076.7,070.0,8.000,8.058,,16.3875,,16.3893,,16.3884,33.5653,,33.5655,33.5662,,33.5678,33.5667,5.6181,,5.8527,5.8197,4.2586,,6.2254,4.9250,5.3724,244.893,255.1557,253.9458,185.631,433.4285,202.9182,228.4320,0.1063,,0.8256,0.3739,-99.0,,-99.0,-99.0,24.5561,,24.5564,,0.7922,82.0343,,8.133,,1.8709E+03,,1.7432E+01,,16.3862,16.3880,0.0245,,100.539,76.212,,,,,,,,,,,,
CalCOFI,2007SR,064,66,2007_064d,25-Jul-2020 22:43:49,25-Jul-2020 14:43:49,34.38870,-122.24622,076.7 070.0,076.7,070.0,9.000,9.065,,16.3884,,16.3902,,16.3893,33.5656,,33.5658,33.5667,,33.5683,33.5671,5.6091,,5.8432,5.8103,4.2602,,6.2292,4.9292,5.3698,244.498,254.7434,253.5347,185.699,432.4624,203.0807,228.3077,0.0933,,0.6725,0.3167,-99.0,,-99.0,-99.0,24.5562,,24.5566,,0.7926,82.0244,,8.133,,1.8344E+03,,1.5655E+01,,16.3869,16.3887,0.0279,,100.378,76.242,,,,,,,,,,,,
CalCOFI,2007SR,064,66,2007_064d,25-Jul-2020 22:43:50,25-Jul-2020 14:43:50,34.38870,-122.24622,076.7 070.0,076.7,070.0,10.000,10.072,,16.3906,,16.3927,,16.3917,33.5658,,33.5660,33.5660,,33.5676,33.5668,5.6125,,5.8468,5.8139,4.2647,,6.2399,4.9408,5.3774,244.645,254.8968,253.6877,185.896,432.8219,203.5514,228.6196,0.0925,,0.6630,0.3131,-99.0,,-99.0,-99.0,24.5558,,24.5555,,0.7911,82.0567,,8.133,,1.8278E+03,,1.4336E+01,,16.3890,16.3911,0.0313,,100.443,76.326,,,,,,,,,,,,
CalCOFI,2007SR,064,66,2007_064d,25-Jul-2020 22:43:52,25-Jul-2020 14:43:52,34.38870,-122.24622,076.7 070.0,076.7,070.0,11.000,11.080,,16.3723,,16.3696,,16.3710,33.5676,,33.5678,33.5690,,33.5706,33.5692,5.6140,,5.8484,5.8154,4.2699,,6.2523,4.9543,5.3849,244.713,254.9678,253.7585,186.122,432.9883,204.0913,228.9249,0.1112,,0.8833,0.3948,-99.0,,-99.0,-99.0,24.5615,,24.5632,,0.7901,82.0771,,8.133,,1.8085E+03,,1.2813E+01,,16.3706,16.3678,0.0347,,100.437,76.386,11,16.420,33.5768,5.811,253.70,0.341,0.088,1.98,0.047,0.15,0.36,1.84
CalCOFI,2007SR,064,66,2007_064d,25-Jul-2020 22:43:55,25-Jul-2020 14:43:55,34.38870,-122.24622,076.7 070.0,076.7,070.0,12.000,12.087,,16.3601,,16.3715,,16.3658,33.5712,,33.5714,33.5698,,33.5714,33.5714,5.6159,,5.8504,5.8174,4.2745,,6.2633,4.9662,5.3918,244.794,255.0524,253.8428,186.321,433.1864,204.5668,229.2048,0.0948,,0.6901,0.3234,-99.0,,-99.0,-99.0,24.5670,,24.5634,,0.7927,82.0236,,8.133,,1.7741E+03,,1.1661E+01,,16.3582,16.3696,0.0381,,100.449,76.471,,,,,,,,,,,,
CalCOFI,2007SR,064,66,2007_064d,25-Jul-2020 22:43:58,25-Jul-2020 14:43:58,34.38870,-122.24622,076.7 070.0,076.7,070.0,13.000,13.094,,16.3540,,16.3542,,16.3541,33.5751,,33.5753,33.5763,,33.5779,33.5766,5.6133,,5.8476,5.8147,4.2798,,6.2760,4.9799,5.3973,244.680,254.9334,253.7241,186.551,432.9075,205.1163,229.4202,0.0987,,0.7360,0.3408,1.0345E-07,,0.0000,-99.0,24.5715,,24.5724,,0.7898,82.0823,,8.133,,1.7508E+03,,1.0691E+01,,16.3520,16.3522,0.0415,,100.393,76.544,,,,,,,,,,,,
CalCOFI,2007SR,064,66,2007_064d,25-Jul-2020 22:43:59,25-Jul-2020 14:43:59,34.38870,-122.24622,076.7 070.0,076.7,070.0,14.000,14.102,,16.3537,,16.3538,,16.3538,33.5775,,33.5777,33.5785,,33.5801,33.5789,5.6138,,5.8482,5.8152,4.2813,,6.2795,4.9838,5.3995,244.699,254.9532,253.7439,186.615,432.9540,205.2692,229.5066,0.0977,,0.7243,0.3363,2.9759E-09,,0.0000,-99.0,24.5735,,24.5742,,0.7919,82.0391,,8.133,,1.7232E+03,,9.8789E+00,,16.3515,16.3516,0.0449,,100.402,76.570,,,,,,,,,,,,
CalCOFI,2007SR,064,66,2007_064d,25-Jul-2020 22:44:01,25-Jul-2020 14:44:01,34.38870,-122.24622,076.7 070.0,076.7,070.0,15.000,15.109,,16.3521,,16.3521,,16.3521,33.5794,,33.5796,33.5806,,33.5822,33.5809,5.6136,,5.8480,5.8150,4.2854,,6.2893,4.9944,5.4047,244.688,254.9417,253.7324,186.797,432.9271,205.7040,229.7182,0.0962,,0.7066,0.3297,-99.0,,-99.0,-99.0,24.5753,,24.5762,,0.7933,82.0103,,8.133,,1.7057E+03,,9.1508E+00,,16.3498,16.3497,0.0483,,100.396,76.644,,,,,,,,,,,,
CalCOFI,2007SR,064,66,2007_064d,25-Jul-2020 22:44:04,25-Jul-2020 14:44:04,34.38870,-122.24622,076.7 070.0,076.7,070.0,16.000,16.116,,16.3477,,16.3477,,16.3477,33.5828,,33.5830,33.5840,,33.5856,33.5843,5.6134,,5.8477,5.8148,4.2889,,6.2977,5.0035,5.4092,244.681,254.9344,253.7251,186.946,432.9100,206.0600,229.8926,0.1010,,0.7631,0.3509,-99.0,,-99.0,-99.0,24.5789,,24.5799,,0.7859,82.1628,,8.133,,1.7070E+03,,8.5147E+00,,16.3451,16.3451,0.0516,,100.387,76.700,,,,,,,,,,,,
CalCOFI,2007SR,064,66,2007_064d,25-Jul-2020 22:44:06,25-Jul-2020 14:44:06,34.38870,-122.24622,076.7 070.0,076.7,070.0,17.000,17.123,,16.3452,,16.3453,,16.3453,33.5848,,33.5850,33.5860,,33.5876,33.5863,5.6102,,5.8444,5.8115,4.2899,,6.3001,5.0061,5.4088,244.542,254.7893,253.5805,186.991,432.5700,206.1675,229.8740,0.1176,,0.9587,0.4215,-99.0,,-99.0,-99.0,24.5811,,24.5821,,0.7865,82.1498,,8.133,,1.7044E+03,,7.8970E+00,,16.3425,16.3425,0.0550,,100.326,76.716,,,,,,,,,,,,
CalCOFI,2007SR,064,66,2007_064d,25-Jul-2020 22:44:08,25-Jul-2020 14:44:08,34.38870,-122.24622,076.7 070.0,076.7,070.0,18.000,18.131,,16.3432,,16.3431,,16.3432,33.5858,,33.5860,33.5870,,33.5886,33.5873,5.6110,,5.8452,5.8123,4.2959,,6.3144,5.0216,5.4170,244.577,254.8258,253.6169,187.250,432.6556,206.7863,230.2016,0.1087,,0.8538,0.3842,-99.0,,-99.0,-99.0,24.5824,,24.5834,,0.7889,82.1009,,8.133,,1.7174E+03,,7.3507E+00,,16.3403,16.3402,0.0584,,100.337,76.819,,,,,,,,,,,,
CalCOFI,2007SR,064,66,2007_064d,25-Jul-2020 22:44:10,25-Jul-2020 14:44:10,34.38870,-122.24622,076.7 070.0,076.7,070.0,19.000,19.138,,16.3370,,16.3368,,16.3369,33.5860,,33.5862,33.5871,,33.5887,33.5875,5.6116,,5.8459,5.8129,4.2952,,6.3127,5.0198,5.4164,244.601,254.8509,253.6419,187.220,432.7143,206.7147,230.1783,0.1084,,0.8503,0.3829,-99.0,,-99.0,-99.0,24.5840,,24.5849,,0.7844,82.1936,,8.133,,1.7338E+03,,6.8603E+00,,16.3339,16.3338,0.0618,,100.335,76.798,,,,,,,,,,,,
CalCOFI,2007SR,064,66,2007_064d,25-Jul-2020 22:44:12,25-Jul-2020 14:44:12,34.38870,-122.24622,076.7 070.0,076.7,070.0,20.000,20.145,,16.3288,,16.3290,,16.3289,33.5865,,33.5867,33.5875,,33.5891,33.5879,5.6089,,5.8430,5.8101,4.3007,,6.3259,5.0341,5.4221,244.482,254.7267,253.5180,187.461,432.4233,207.2905,230.4043,0.1147,,0.9245,0.4095,0.0001,,0.0000,-99.0,24.5863,,24.5870,,0.7779,82.3265,,8.132,,1.7278E+03,,6.4526E+00,,16.3256,16.3259,0.0651,,100.271,76.886,20,16.346,33.5895,5.841,255.02,0.364,0.120,2.04,0.052,0.18,0.37,1.88
CalCOFI,2007SR,064,66,2007_064d,25-Jul-2020 22:44:15,25-Jul-2020 14:44:15,34.38870,-122.24622,076.7 070.0,076.7,070.0,21.000,21.153,,16.3135,,16.3129,,16.3132,33.5865,,33.5867,33.5876,,33.5892,33.5880,5.6100,,5.8442,5.8113,4.3047,,6.3354,5.0444,5.4279,244.530,254.7768,253.5680,187.635,432.5407,207.7062,230.6371,0.1140,,0.9163,0.4066,0.0001,,0.0000,-99.0,24.5898,,24.5908,,0.7949,81.9771,,8.130,,1.7095E+03,,6.0665E+00,,16.3102,16.3096,0.0685,,100.261,76.933,,,,,,,,,,,,
CalCOFI,2007SR,064,66,2007_064d,25-Jul-2020 22:44:17,25-Jul-2020 14:44:17,34.38870,-122.24622,076.7 070.0,076.7,070.0,22.000,22.160,,16.2898,,16.2888,,16.2893,33.5872,,33.5874,33.5882,,33.5898,33.5886,5.6095,,5.8437,5.8108,4.3095,,6.3469,5.0568,5.4338,244.509,254.7548,253.5461,187.840,432.4893,208.1960,230.8711,0.1225,,1.0165,0.4416,0.0001,,0.0000,-99.0,24.5958,,24.5969,,0.7779,82.3267,,8.130,,1.7177E+03,,5.6789E+00,,16.2863,16.2853,0.0719,,100.207,76.982,,,,,,,,,,,,
CalCOFI,2007SR,064,66,2007_064d,25-Jul-2020 22:44:19,25-Jul-2020 14:44:19,34.38870,-122.24622,076.7 070.0,076.7,070.0,23.000,23.167,,16.2637,,16.2622,,16.2630,33.5872,,33.5874,33.5882,,33.5898,33.5886,5.6108,,5.8450,5.8121,4.3123,,6.3536,5.0641,5.4381,244.562,254.8102,253.6013,187.963,432.6189,208.4899,231.0456,0.1241,,1.0354,0.4481,0.0001,,0.0000,-99.0,24.6019,,24.6030,,0.8178,81.5118,,8.130,,1.7366E+03,,5.4010E+00,,16.2600,16.2585,0.0752,,100.178,76.992,,,,,,,,,,,,
CalCOFI,2007SR,064,66,2007_064d,25-Jul-2020 22:44:21,25-Jul-2020 14:44:21,34.38870,-122.24622,076.7 070.0,076.7,070.0,24.000,24.175,,16.2233,,16.2208,,16.2221,33.5877,,33.5879,33.5883,,33.5899,33.5889,5.6246,,5.8594,5.8265,4.3206,,6.3734,5.0856,5.4561,245.159,255.4334,254.2226,188.323,434.0791,209.3500,231.7863,0.1604,,1.4638,0.5845,0.0001,,0.0000,-99.0,24.6115,,24.6126,,0.7847,82.1876,,8.129,,1.7437E+03,,5.1289E+00,,16.2195,16.2169,0.0786,,100.345,77.078,,,,,,,,,,,,
CalCOFI,2007SR,064,66,2007_064d,25-Jul-2020 22:44:23,25-Jul-2020 14:44:23,34.38870,-122.24622,076.7 070.0,076.7,070.0,25.000,25.182,,16.1547,,16.1523,,16.1535,33.5907,,33.5909,33.5923,,33.5939,33.5924,5.6226,,5.8574,5.8244,4.3288,,6.3929,5.1068,5.4656,245.068,255.3384,254.1279,188.677,433.8565,210.1957,232.1618,0.1676,,1.5489,0.6092,0.0001,,0.0000,-99.0,24.6295,,24.6313,,0.7969,81.9377,,8.129,,1.7209E+03,,4.7992E+00,,16.1507,16.1483,0.0819,,100.177,77.123,,,,,,,,,,,,
CalCOFI,2007SR,064,66,2007_064d,25-Jul-2020 22:44:26,25-Jul-2020 14:44:26,34.38870,-122.24622,076.7 070.0,076.7,070.0,26.000,26.189,,16.0663,,16.0973,,16.0818,33.6034,,33.6036,33.6035,,33.6051,33.6044,5.7067,,5.9452,5.9118,4.3461,,6.4342,5.1517,5.5318,248.726,259.1570,257.9352,189.427,442.8035,211.9877,234.9615,0.1430,,1.2584,0.5216,0.0001,,0.0000,-99.0,24.6594,,24.6524,,0.7753,82.3812,,8.129,,1.7070E+03,,4.5037E+00,,16.0622,16.0932,0.0853,,101.507,77.353,,,,,,,,,,,,
CalCOFI,2007SR,064,66,2007_064d,25-Jul-2020 22:44:28,25-Jul-2020 14:44:28,34.38870,-122.24622,076.7 070.0,076.7,070.0,27.000,27.197,,15.7641,,15.7332,,15.7487,33.6506,,33.6508,33.6545,,33.6561,33.6535,5.7548,,5.9955,5.9618,4.3762,,6.5061,5.2296,5.5957,250.796,261.3178,260.0896,190.718,447.8664,215.0721,237.5809,0.1537,,1.3847,0.5608,0.0001,,0.0000,-99.0,24.7639,,24.7738,,0.7881,82.1164,,8.127,,1.7090E+03,,4.2653E+00,,15.7599,15.7290,0.0885,,101.786,77.359,,,,,,,,,,,,
CalCOFI,2007SR,064,66,2007_064d,25-Jul-2020 22:44:29,25-Jul-2020 14:44:29,34.38870,-122.24622,076.7 070.0,076.7,070.0,28.000,28.204,,15.6613,,15.6578,,15.6596,33.6664,,33.6666,33.6683,,33.6699,33.6683,5.7529,,5.9935,5.9598,4.3848,,6.5266,5.2519,5.6059,250.708,261.2260,259.9980,191.086,447.6512,215.9513,237.9747,0.1755,,1.6423,0.6354,0.0001,,0.0000,-99.0,24.7991,,24.8014,,0.7941,81.9941,,8.125,,1.7071E+03,,4.0605E+00,,15.6570,15.6535,0.0917,,101.558,77.402,,,,,,,,,,,,
CalCOFI,2007SR,064,66,2007_064d,25-Jul-2020 22:44:31,25-Jul-2020 14:44:31,34.38871,-122.24622,076.7 070.0,076.7,070.0,29.000,29.211,,15.6402,,15.6364,,15.6383,33.6670,,33.6672,33.6683,,33.6699,33.6686,5.7523,,5.9929,5.9592,4.3892,,6.5371,5.2633,5.6113,250.678,261.1947,259.9668,191.277,447.5778,216.4077,238.1873,0.1614,,1.4757,0.5880,0.0001,,0.0000,-99.0,24.8043,,24.8062,,0.7897,82.0845,,8.122,,1.7205E+03,,3.8365E+00,,15.6358,15.6319,0.0949,,101.505,77.447,,,,,,,,,,,,
CalCOFI,2007SR,064,66,2007_064d,25-Jul-2020 22:44:34,25-Jul-2020 14:44:34,34.38871,-122.24622,076.7 070.0,076.7,070.0,30.000,30.219,,15.6236,,15.6286,,15.6261,33.6690,,33.6692,33.6699,,33.6715,33.6704,5.6979,,5.9360,5.9027,4.3964,,6.5543,5.2819,5.5923,248.309,258.7217,257.5011,191.589,441.7836,217.1531,237.3271,0.1832,,1.7334,0.6601,0.0001,,0.0000,-99.0,24.8096,,24.8091,,0.8057,81.7579,,8.120,,1.7191E+03,,3.6020E+00,,15.6189,15.6240,0.0980,,100.514,77.562,30,15.493,33.6745,,259.33,0.609,0.284,3.82,0.104,0.25,0.47,2.59
CalCOFI,2007SR,064,66,2007_064d,25-Jul-2020 22:44:37,25-Jul-2020 14:44:37,34.38870,-122.24622,076.7 070.0,076.7,070.0,31.000,31.226,,15.5581,,15.5442,,15.5512,33.6651,,33.6653,33.6666,,33.6682,33.6668,5.6201,,5.8547,5.8218,4.4110,,6.5892,5.3198,5.5708,244.913,255.1766,253.9666,192.223,433.4774,218.6679,236.3173,0.1907,,1.8221,0.6832,0.0001,,0.0000,-99.0,24.8212,,24.8254,,0.7930,82.0167,,8.117,,1.7165E+03,,3.3970E+00,,15.5534,15.5394,0.1012,,99.010,77.689,,,,,,,,,,,,
CalCOFI,2007SR,064,66,2007_064d,25-Jul-2020 22:44:38,25-Jul-2020 14:44:38,34.38870,-122.24622,076.7 070.0,076.7,070.0,32.000,32.234,,15.4688,,15.4628,,15.4658,33.6713,,33.6715,33.6733,,33.6749,33.6732,5.6014,,5.8352,5.8023,4.4180,,6.6059,5.3379,5.5701,244.093,254.3206,253.1132,192.524,431.4718,219.3870,236.2501,0.2052,,1.9937,0.7256,0.0001,,0.0000,-99.0,24.8458,,24.8487,,0.7956,81.9634,,8.116,,1.7240E+03,,3.2015E+00,,15.4639,15.4579,0.1043,,98.511,77.691,,,,,,,,,,,,
CalCOFI,2007SR,064,66,2007_064d,25-Jul-2020 22:44:40,25-Jul-2020 14:44:40,34.38872,-122.24622,076.7 070.0,076.7,070.0,33.000,33.241,,15.4519,,15.4495,,15.4507,33.6731,,33.6733,33.6745,,33.6761,33.6747,5.5860,,5.8191,5.7863,4.4195,,6.6095,5.3418,5.5641,243.421,253.6191,252.4138,192.590,429.8282,219.5447,235.9793,0.2339,,2.3339,0.8000,0.0001,,0.0000,-99.0,24.8510,,24.8526,,0.7966,81.9423,,8.113,,1.7358E+03,,3.0425E+00,,15.4468,15.4444,0.1074,,98.208,77.698,,,,,,,,,,,,
CalCOFI,2007SR,064,66,2007_064d,25-Jul-2020 22:44:42,25-Jul-2020 14:44:42,34.38870,-122.24622,076.7 070.0,076.7,070.0,34.000,34.248,,15.4212,,15.4278,,15.4245,33.6738,,33.6740,33.6760,,33.6776,33.6758,5.5510,,5.7825,5.7500,4.4208,,6.6126,5.3451,5.5476,241.895,252.0261,250.8255,192.644,426.0958,219.6737,235.2496,0.2274,,2.2568,0.7842,-99.0,,-99.0,-99.0,24.8584,,24.8586,,0.8102,81.6645,,8.110,,1.8242E+03,,2.8970E+00,,15.4160,15.4226,0.1106,,97.535,77.687,,,,,,,,,,,,
CalCOFI,2007SR,064,66,2007_064d,25-Jul-2020 22:44:45,25-Jul-2020 14:44:45,34.38870,-122.24622,076.7 070.0,076.7,070.0,35.000,35.256,,15.3875,,15.3832,,15.3854,33.6740,,33.6742,33.6742,,33.6758,33.6750,5.4788,,5.7071,5.6749,4.4256,,6.6240,5.3576,5.5163,238.746,248.7388,247.5481,192.852,418.3938,220.1707,233.8594,0.2165,,2.1276,0.7563,-99.0,,-99.0,-99.0,24.8660,,24.8671,,0.7892,82.0941,,8.109,,1.9268E+03,,2.7368E+00,,15.3822,15.3779,0.1137,,96.202,77.702,,,,,,,,,,,,
CalCOFI,2007SR,064,66,2007_064d,25-Jul-2020 22:44:46,25-Jul-2020 14:44:46,34.38871,-122.24622,076.7 070.0,076.7,070.0,36.000,36.263,,15.3334,,15.3256,,15.3295,33.6724,,33.6726,33.6737,,33.6753,33.6740,5.4704,,5.6983,5.6662,4.4257,,6.6243,5.3578,5.5120,238.380,248.3568,247.1671,192.855,417.4986,220.1778,233.6725,0.2078,,2.0245,0.7328,-99.0,,-99.0,-99.0,24.8767,,24.8794,,0.7913,82.0519,,8.106,,1.8982E+03,,2.5898E+00,,15.3279,15.3202,0.1168,,95.951,77.616,,,,,,,,,,,,
CalCOFI,2007SR,064,66,2007_064d,25-Jul-2020 22:44:48,25-Jul-2020 14:44:48,34.38871,-122.24622,076.7 070.0,076.7,070.0,37.000,37.270,,15.2645,,15.2742,,15.2694,33.6737,,33.6739,33.6778,,33.6794,33.6767,5.3344,,5.5562,5.5248,4.4332,,6.6422,5.3773,5.4511,232.448,242.1644,240.9932,193.177,402.9898,220.9472,230.9702,0.2018,,1.9535,0.7159,3.9674E-08,,0.0000,-99.0,24.8929,,24.8940,,0.7907,82.0646,,8.102,,1.8349E+03,,2.4511E+00,,15.2589,15.2686,0.1199,,93.439,77.669,,,,,,,,,,,,
CalCOFI,2007SR,064,66,2007_064d,25-Jul-2020 22:44:51,25-Jul-2020 14:44:51,34.38870,-122.24622,076.7 070.0,076.7,070.0,38.000,38.278,,15.1092,,15.1122,,15.1107,33.6637,,33.6639,33.6600,,33.6616,33.6628,5.0972,,5.3084,5.2782,4.4551,,6.6945,5.4340,5.3561,222.105,231.3673,230.2283,194.129,377.6923,223.2217,226.7250,0.1953,,1.8765,0.6970,-99.0,,-99.0,-99.0,24.9192,,24.9156,,0.7746,82.3964,,8.095,,1.7730E+03,,2.3140E+00,,15.1035,15.1065,0.1229,,89.002,77.794,,,,,,,,,,,,
CalCOFI,2007SR,064,66,2007_064d,25-Jul-2020 22:44:53,25-Jul-2020 14:44:53,34.38872,-122.24622,076.7 070.0,076.7,070.0,39.000,39.285,,14.7524,,14.7086,,14.7305,33.6606,,33.6608,33.6583,,33.6599,33.6604,5.0910,,5.3019,5.2718,4.4811,,6.7565,5.5013,5.3866,221.822,231.0719,229.9337,195.244,377.0001,225.8857,227.9097,0.1677,,1.5501,0.6096,-99.0,,-99.0,-99.0,24.9942,,25.0018,,0.7506,82.8910,,8.086,,1.7659E+03,,2.2045E+00,,14.7466,14.7028,0.1260,,88.263,77.619,,,,,,,,,,,,
CalCOFI,2007SR,064,66,2007_064d,25-Jul-2020 22:44:55,25-Jul-2020 14:44:55,34.38872,-122.24622,076.7 070.0,076.7,070.0,40.000,40.293,,14.5266,,14.5063,,14.5165,33.6606,,33.6608,33.6633,,33.6649,33.6629,5.0578,,5.2672,5.2373,4.4855,,6.7670,5.5127,5.3750,220.364,229.5499,228.4163,195.427,373.4341,226.3229,227.3696,0.1646,,1.5135,0.5990,-99.0,,-99.0,-99.0,25.0425,,25.0489,,0.7469,82.9660,,8.077,,1.7579E+03,,2.1162E+00,,14.5207,14.5004,0.1289,,87.291,77.383,40,14.507,33.6733,,231.78,0.686,0.574,6.49,0.245,1.78,0.73,4.89
CalCOFI,2007SR,064,66,2007_064d,25-Jul-2020 22:44:57,25-Jul-2020 14:44:57,34.38872,-122.24622,076.7 070.0,076.7,070.0,41.000,41.300,,14.3497,,14.3551,,14.3524,33.6602,,33.6604,33.6600,,33.6616,33.6610,4.9925,,5.1990,5.1694,4.4846,,6.7649,5.5104,5.3399,217.510,226.5706,225.4459,195.383,366.4536,226.2177,225.8318,0.1727,,1.6092,0.6262,-99.0,,-99.0,-99.0,25.0797,,25.0784,,0.7397,83.1168,,8.067,,1.7519E+03,,2.0252E+00,,14.3437,14.3491,0.1319,,85.858,77.131,,,,,,,,,,,,
CalCOFI,2007SR,064,66,2007_064d,25-Jul-2020 22:45:00,25-Jul-2020 14:45:00,34.38872,-122.24622,076.7 070.0,076.7,070.0,42.000,42.308,,14.1313,,14.1371,,14.1342,33.6572,,33.6574,33.6579,,33.6595,33.6585,4.9362,,5.1401,5.1109,4.4842,,6.7639,5.5094,5.3102,215.046,223.9984,222.8814,195.357,360.4270,226.1556,224.5185,0.1561,,1.4130,0.5694,-99.0,,-99.0,-99.0,25.1233,,25.1226,,0.7445,83.0184,,8.058,,1.7441E+03,,1.9335E+00,,14.1253,14.1310,0.1347,,84.513,76.785,,,,,,,,,,,,
CalCOFI,2007SR,064,66,2007_064d,25-Jul-2020 22:45:02,25-Jul-2020 14:45:02,34.38872,-122.24622,076.7 070.0,076.7,070.0,43.000,43.315,,14.0091,,14.0035,,14.0063,33.6610,,33.6612,33.6624,,33.6640,33.6626,4.9288,,5.1324,5.1032,4.4813,,6.7570,5.5019,5.3026,214.721,223.6592,222.5431,195.226,359.6321,225.8427,224.1929,0.1518,,1.3623,0.5540,-99.0,,-99.0,-99.0,25.1518,,25.1540,,0.7317,83.2828,,8.051,,1.7289E+03,,1.8688E+00,,14.0029,13.9973,0.1376,,84.181,76.530,,,,,,,,,,,,
CalCOFI,2007SR,064,66,2007_064d,25-Jul-2020 22:45:03,25-Jul-2020 14:45:03,34.38872,-122.24622,076.7 070.0,076.7,070.0,44.000,44.322,,13.8923,,13.8869,,13.8896,33.6590,,33.6592,33.6602,,33.6618,33.6605,4.9402,,5.1443,5.1150,4.4705,,6.7312,5.4739,5.2945,215.213,224.1728,223.0552,194.750,360.8355,224.7054,223.8803,0.1467,,1.3020,0.5353,-99.0,,-99.0,-99.0,25.1745,,25.1766,,0.7275,83.3694,,8.045,,1.7188E+03,,1.8236E+00,,13.8861,13.8806,0.1404,,84.175,76.164,,,,,,,,,,,,
CalCOFI,2007SR,064,66,2007_064d,25-Jul-2020 22:45:06,25-Jul-2020 14:45:06,34.38872,-122.24622,076.7 070.0,076.7,070.0,45.000,45.330,,13.8760,,13.9128,,13.8944,33.6624,,33.6626,33.6658,,33.6674,33.6650,4.8246,,5.0235,4.9949,4.4551,,6.6945,5.4340,5.2145,210.175,218.9136,217.8117,194.078,348.5132,223.0998,220.4558,0.1492,,1.3316,0.5445,-99.0,,-99.0,-99.0,25.1805,,25.1755,,0.7287,83.3464,,8.040,,1.7156E+03,,1.7569E+00,,13.8696,13.9064,0.1432,,82.179,75.943,,,,,,,,,,,,
CalCOFI,2007SR,064,66,2007_064d,25-Jul-2020 22:45:08,25-Jul-2020 14:45:08,34.38872,-122.24622,076.7 070.0,076.7,070.0,46.000,46.337,,13.7189,,13.7146,,13.7168,33.6516,,33.6518,33.6525,,33.6541,33.6530,4.7352,,4.9301,4.9019,4.4603,,6.7069,5.4475,5.1747,206.276,214.8434,213.7536,194.300,338.9768,223.6302,218.6919,0.1627,,1.4910,0.5925,-99.0,,-99.0,-99.0,25.2045,,25.2061,,0.7244,83.4339,,8.033,,1.7190E+03,,1.6826E+00,,13.7124,13.7081,0.1460,,80.394,75.720,,,,,,,,,,,,
CalCOFI,2007SR,064,66,2007_064d,25-Jul-2020 22:45:10,25-Jul-2020 14:45:10,34.38872,-122.24622,076.7 070.0,076.7,070.0,47.000,47.345,,13.4871,,13.4832,,13.4852,33.6505,,33.6507,33.6517,,33.6533,33.6520,4.7553,,4.9511,4.9228,4.4615,,6.7097,5.4506,5.1867,207.142,215.7474,214.6550,194.344,341.0949,223.7354,219.1952,0.1459,,1.2926,0.5324,-99.0,,-99.0,-99.0,25.2511,,25.2528,,0.7189,83.5500,,8.025,,1.7224E+03,,1.6225E+00,,13.4805,13.4767,0.1488,,80.353,75.384,,,,,,,,,,,,
CalCOFI,2007SR,064,66,2007_064d,25-Jul-2020 22:45:12,25-Jul-2020 14:45:12,34.38872,-122.24622,076.7 070.0,076.7,070.0,48.000,48.352,,13.3900,,13.4154,,13.4027,33.6515,,33.6517,33.6636,,33.6652,33.6585,4.7122,,4.9061,4.8780,4.4535,,6.6906,5.4298,5.1539,205.258,213.7807,212.6941,193.991,336.4869,222.8920,217.7931,0.1352,,1.1663,0.4919,-99.0,,-99.0,-99.0,25.2715,,25.2757,,0.7221,83.4834,,8.018,,1.7210E+03,,1.5652E+00,,13.3834,13.4087,0.1515,,79.467,75.150,,,,,,,,,,,,
CalCOFI,2007SR,064,66,2007_064d,25-Jul-2020 22:45:15,25-Jul-2020 14:45:15,34.38872,-122.24622,076.7 070.0,076.7,070.0,49.000,49.360,,13.3185,,13.3384,,13.3285,33.6466,,33.6468,33.6534,,33.6550,33.6509,4.5730,,4.7606,4.7333,4.4470,,6.6751,5.4130,5.0732,199.192,207.4484,206.3807,193.708,321.6504,222.2158,214.2983,0.1293,,1.0967,0.4688,-99.0,,-99.0,-99.0,25.2822,,25.2834,,0.7146,83.6391,,8.009,,1.7130E+03,,1.4935E+00,,13.3117,13.3316,0.1542,,77.004,74.917,,,,,,,,,,,,
CalCOFI,2007SR,064,66,2007_064d,25-Jul-2020 22:45:17,25-Jul-2020 14:45:17,34.38872,-122.24622,076.7 070.0,076.7,070.0,50.000,50.367,,13.0477,,13.0633,,13.0555,33.6373,,33.6375,33.6366,,33.6382,33.6379,4.5399,,4.7260,4.6989,4.4532,,6.6899,5.4291,5.0640,197.745,205.9379,204.8747,193.966,318.1112,222.8322,213.8535,0.1159,,0.9387,0.4145,-99.0,,-99.0,-99.0,25.3291,,25.3255,,0.7085,83.7676,,8.000,,1.7318E+03,,1.4297E+00,,13.0409,13.0565,0.1569,,76.019,74.589,50,12.808,,,206.54,,,,,,,